Notices

What's New in latest Release from April 7th, 2021:

- Updated Glossary, including Speed of Maximum Gust, and Total Hourly Precipitation

- Updated national and regional climate services offices contacts and prices information

- Addition of station inventory lists for 1981-2010, 1971-2000, and 1961-1990 Normals.

If you haven't already, please take our survey and provide feedback about our website: https://eccc.sondage-survey.ca/f/LanguageSelection.aspx?s=442ca660-fcf1-47c0-95a9-59707d6fd709

Hourly Data Report for November 17, 2016

CARBERRY CS
MANITOBA

49°54'20.900" N
99°21'26.800" W
383.50 m
5010547
71170
WZE

Download Data

Hourly Data (November 2016)
Hourly Data Report for November 17, 2016
TIME
LST
Temp Definition
°C
Dew Point Definition
°C
Rel Hum Definition
%
Precip. Amount Definition
mm

Wind Dir Definition
10's deg

Wind Spd Definition
km/h
Visibility Definition
km
Stn Press Definition
kPa
Hmdx Definition


Wind Chill Definition


Weather Definition


00:00 2.4 -0.4 82 0.0 36 22   96.26     LegendNANA
01:00 2.1 -0.8 81 0.0 36 22   96.39     LegendNANA
02:00 1.8 -1.3 80 0.0 35 20   96.41     LegendNANA
03:00 0.3 -2.9 79 0.0 36 24   96.58     LegendNANA
04:00 -0.5 -4.0 77 0.0 33 21   96.64   -6 LegendNANA
05:00 -1.2 -4.2 80 0.0 34 15   96.76   -6 LegendNANA
06:00 -1.7 -4.6 81 0.0 32 15   96.79   -7 LegendNANA
07:00 0.1 -3.7 76 0.0 1 20   96.85     LegendNANA
08:00 0.1 -3.2 79 0.0 1 16   96.94     LegendNANA
09:00 0.2 -3.8 75 0.0 36 19   97.02     LegendNANA
10:00 0.0 -4.0 74 0.0 1 22   97.06   -6 LegendNANA
11:00 0.1 -4.3 72 0.0 36 20   97.19     LegendNANA
12:00 0.3 -4.4 71 0.0 36 20   97.25     LegendNANA
13:00 0.4 -4.6 69 0.0 35 19   97.22     LegendNANA
14:00 0.3 -4.5 70 0.0 1 19   97.26     LegendNANA
15:00 0.4 -4.4 70 0.0 36 20   97.29     LegendNANA
16:00 0.3 -4.6 70 0.0 35 17   97.37     LegendNANA
17:00 0.3 -4.5 70 0.0 34 18   97.42     LegendNANA
18:00 0.4 -4.5 70 0.0 34 14   97.47     LegendNANA
19:00 0.3 -4.5 70 0.0 34 13   97.55     LegendNANA
20:00 -1.4 -4.6 78 0.0 36 9   97.61   -5 LegendNANA
21:00 -1.9 -4.6 82 0.0 34 8   97.66   -5 LegendNANA
22:00 -1.5 -4.5 80 0.0 36 11   97.70   -5 LegendNANA
23:00 -1.4 -4.7 78 0.0 35 10   97.71   -5 LegendNANA

Notes on Data Quality.

Legend

  • E = Estimated
  • M = Missing
  • NA = Not Available*
  • [empty] = Indicates an unobserved value
Date modified: